| time (UTC) | temp F | wind direction | speed knots | gust knots | rain 1hr in | rain 24hr in | rain mn in | humidity % | barometer mb |
| 20260507230211 | 57 | 350 | 7.8 | 0.0 | 0.00 | 0.00 | 0.00 | 62 | 1015.0 |
| 20260507223217 | 59 | 340 | 7.0 | 0.0 | 0.00 | 0.00 | 0.00 | 58 | 1014.0 |
| 20260507222407 | 59 | 340 | 7.8 | 0.0 | 0.00 | 0.00 | 0.00 | 58 | |
| 20260507220229 | 59 | 340 | 6.1 | 0.0 | 0.00 | 0.00 | 0.00 | 58 | 1014.0 |
| 20260507213216 | 59 | 10 | 2.6 | 0.0 | 0.00 | 0.00 | 0.00 | 62 | 1014.0 |
| 20260507212107 | 59 | 350 | 4.3 | 0.0 | 0.00 | 0.00 | 0.00 | 62 | |
| 20260507210227 | 59 | 0 | 1.7 | 0.0 | 0.00 | 0.00 | 0.00 | 62 | 1014.0 |
| 20260507203216 | 57 | 0 | 1.7 | 0.0 | 0.00 | 0.00 | 0.00 | 71 | 1013.0 |
| 20260507202109 | 57 | 160 | 1.7 | 0.0 | 0.00 | 0.00 | 0.00 | 71 | |
| 20260507200409 | 57 | 190 | 2.6 | 0.0 | 0.00 | 0.00 | 0.00 | 71 | 1013.0 |
| 20260507193217 | 57 | 210 | 2.6 | 0.0 | 0.00 | 0.00 | 0.00 | 71 | 1013.0 |
| 20260507192210 | 57 | 90 | 4.3 | 0.0 | 0.00 | 0.00 | 0.00 | 71 | |
| 20260507190219 | 57 | 90 | 5.2 | 0.0 | 0.00 | 0.00 | 0.00 | 71 | 1013.0 |
| 20260507183224 | 59 | 150 | 7.0 | 0.0 | 0.00 | 0.00 | 0.00 | 62 | 1012.0 |
| 20260507182106 | 61 | 150 | 7.8 | 0.0 | 0.00 | 0.00 | 0.00 | 59 | |
| 20260507180225 | 61 | 0 | 4.3 | 0.0 | 0.00 | 0.00 | 0.00 | 59 | 1012.0 |
| 20260507173224 | 63 | 150 | 7.0 | 0.0 | 0.00 | 0.00 | 0.00 | 48 | 1012.0 |
| 20260507172603 | 63 | 150 | 7.0 | 0.0 | 0.00 | 0.00 | 0.00 | 48 | 1012.0 |
| 20260507172107 | 64 | 160 | 10.4 | 0.0 | 0.00 | 0.00 | 0.00 | 45 | |
| 20260507170227 | 64 | 160 | 12.2 | 0.0 | 0.00 | 0.00 | 0.00 | 45 | 1011.0 |
| 20260507163223 | 68 | 0 | 4.3 | 0.0 | 0.00 | 0.00 | 0.00 | 40 | 1011.0 |
| 20260507162409 | 70 | 270 | 6.1 | 0.0 | 0.00 | 0.00 | 0.00 | 32 | |
| 20260507160220 | 70 | 270 | 6.1 | 0.0 | 0.00 | 0.00 | 0.00 | 32 | 1011.0 |
| 20260507153434 | 68 | 210 | 7.8 | 0.0 | 0.00 | 0.00 | 0.00 | 37 | 1011.0 |
| 20260507153223 | 68 | 210 | 7.8 | 0.0 | 0.00 | 0.00 | 0.00 | 37 | 1011.0 |
| 20260507152108 | 70 | 220 | 7.8 | 0.0 | 0.00 | 0.00 | 0.00 | 32 | |
| 20260507150226 | 72 | 220 | 7.8 | 0.0 | 0.00 | 0.00 | 0.00 | 30 | 1011.0 |
| 20260507143224 | 72 | 210 | 8.7 | 0.0 | 0.00 | 0.00 | 0.00 | 33 | 1011.0 |
| 20260507142109 | 72 | 210 | 10.4 | 0.0 | 0.00 | 0.00 | 0.00 | 35 | |
| 20260507140226 | 70 | 210 | 10.4 | 0.0 | 0.00 | 0.00 | 0.00 | 35 | 1011.0 |
| 20260507133224 | 72 | 220 | 8.7 | 0.0 | 0.00 | 0.00 | 0.00 | 35 | 1011.0 |
| 20260507132208 | 72 | 240 | 7.8 | 17.4 | 0.00 | 0.00 | 0.00 | 35 | |
| 20260507130224 | 72 | 240 | 7.8 | 0.0 | 0.00 | 0.00 | 0.00 | 35 | 1011.0 |
| 20260507123224 | 70 | 230 | 7.8 | 0.0 | 0.00 | 0.00 | 0.00 | 37 | 1011.0 |
| 20260507122108 | 70 | 230 | 10.4 | 0.0 | 0.00 | 0.00 | 0.00 | 37 | |
| 20260507120227 | 70 | 220 | 11.3 | 0.0 | 0.00 | 0.00 | 0.00 | 37 | 1012.0 |
| 20260507113223 | 68 | 210 | 7.0 | 0.0 | 0.00 | 0.00 | 0.00 | 42 | 1012.0 |
| 20260507112124 | 66 | 220 | 7.8 | 0.0 | 0.00 | 0.00 | 0.00 | 45 | |
| 20260507110228 | 66 | 230 | 7.8 | 0.0 | 0.00 | 0.00 | 0.00 | 48 | 1012.0 |
| 20260507103224 | 64 | 220 | 7.0 | 0.0 | 0.00 | 0.00 | 0.00 | 48 | 1012.0 |
| 20260507102307 | 64 | 230 | 7.8 | 0.0 | 0.00 | 0.00 | 0.00 | 52 | |
| 20260507100304 | 64 | 220 | 8.7 | 0.0 | 0.00 | 0.00 | 0.00 | 48 | 1012.0 |
| 20260507093223 | 64 | 220 | 8.7 | 0.0 | 0.00 | 0.00 | 0.00 | 52 | 1012.0 |
| 20260507092107 | 63 | 260 | 7.8 | 0.0 | 0.00 | 0.00 | 0.00 | 55 | |
| 20260507090226 | 63 | 270 | 7.0 | 0.0 | 0.00 | 0.00 | 0.00 | 55 | 1011.0 |
| 20260507083224 | 63 | 260 | 7.8 | 0.0 | 0.00 | 0.00 | 0.00 | 55 | 1011.0 |
| 20260507082106 | 63 | 260 | 7.8 | 0.0 | 0.00 | 0.00 | 0.00 | 55 | |
| 20260507080226 | 63 | 270 | 7.8 | 0.0 | 0.00 | 0.00 | 0.00 | 55 | 1011.0 |
| 20260507073216 | 61 | 270 | 7.0 | 0.0 | 0.00 | 0.00 | 0.00 | 59 | 1011.0 |
| 20260507072107 | 61 | 270 | 10.4 | 0.0 | 0.00 | 0.00 | 0.00 | 59 | |
| 20260507070228 | 61 | 260 | 7.8 | 0.0 | 0.00 | 0.00 | 0.00 | 59 | 1011.0 |
| 20260507063224 | 59 | 250 | 8.7 | 0.0 | 0.00 | 0.00 | 0.00 | 62 | 1011.0 |
| 20260507062107 | 59 | 260 | 10.4 | 0.0 | 0.00 | 0.00 | 0.00 | 67 | |
| 20260507060228 | 59 | 250 | 7.8 | 0.0 | 0.00 | 0.00 | 0.00 | 67 | 1010.0 |
| 20260507053217 | 59 | 250 | 5.2 | 0.0 | 0.00 | 0.00 | 0.00 | 72 | 1010.0 |
| 20260507052107 | 57 | 270 | 6.1 | 0.0 | 0.00 | 0.00 | 0.00 | 76 | |
| 20260507050227 | 57 | 270 | 6.1 | 0.0 | 0.00 | 0.00 | 0.00 | 76 | 1010.0 |
| 20260507043217 | 57 | 260 | 4.3 | 0.0 | 0.00 | 0.00 | 0.00 | 76 | 1009.0 |
| 20260507042309 | 55 | 210 | 4.3 | 0.0 | 0.00 | 0.00 | 0.00 | 82 | |
| 20260507040225 | 55 | 200 | 2.6 | 0.0 | 0.00 | 0.00 | 0.00 | 82 | 1009.0 |
| 20260507033217 | 55 | 270 | 4.3 | 0.0 | 0.00 | 0.00 | 0.00 | 82 | 1008.0 |
| 20260507032106 | 54 | 190 | 1.7 | 0.0 | 0.00 | 0.00 | 0.00 | 81 | |
| 20260507030232 | 55 | 250 | 6.1 | 0.0 | 0.00 | 0.00 | 0.00 | 76 | 1008.0 |
| 20260507023216 | 57 | 230 | 6.1 | 0.0 | 0.00 | 0.00 | 0.00 | 71 | 1008.0 |
| 20260507022105 | 57 | 240 | 4.3 | 0.0 | 0.00 | 0.00 | 0.00 | 71 | |
| 20260507020232 | 57 | 260 | 7.0 | 0.0 | 0.00 | 0.00 | 0.00 | 71 | 1008.0 |
| 20260507013217 | 57 | 250 | 7.0 | 0.0 | 0.00 | 0.00 | 0.00 | 71 | 1008.0 |
| 20260507012206 | 57 | 250 | 7.8 | 0.0 | 0.00 | 0.00 | 0.00 | 71 | |
| 20260507010233 | 57 | 260 | 8.7 | 0.0 | 0.00 | 0.00 | 0.00 | 71 | 1007.0 |
| 20260507003216 | 59 | 230 | 8.7 | 0.0 | 0.00 | 0.00 | 0.00 | 72 | 1006.0 |
| 20260507002106 | 59 | 210 | 7.8 | 0.0 | 0.00 | 0.00 | 0.00 | 67 | |
| 20260507000227 | 59 | 220 | 8.7 | 0.0 | 0.00 | 0.00 | 0.00 | 67 | 1006.0 |
| 20260506233217 | 59 | 170 | 6.1 | 0.0 | 0.00 | 0.00 | 0.00 | 67 | 1006.0 |
| 20260506232107 | 59 | 170 | 6.1 | 0.0 | 0.00 | 0.00 | 0.00 | 67 |